Year,Month,Day,Hour,Minute,Value (Times are PST for temperature in C)
2015,06,08,00,00,14.40
2015,06,08,00,01,14.30
2015,06,08,00,02,14.30
2015,06,08,00,03,14.30
2015,06,08,00,04,14.20
2015,06,08,00,05,14.20
2015,06,08,00,06,14.20
2015,06,08,00,07,14.20
2015,06,08,00,08,14.10
2015,06,08,00,09,14.10
2015,06,08,00,10,14.00
2015,06,08,00,11,14.00
2015,06,08,00,12,13.90
2015,06,08,00,13,13.90
2015,06,08,00,14,13.90
2015,06,08,00,15,13.80
2015,06,08,00,16,13.80
2015,06,08,00,17,13.70
2015,06,08,00,18,13.70
2015,06,08,00,19,13.70
2015,06,08,00,20,13.70
2015,06,08,00,21,13.70
2015,06,08,00,22,13.70
2015,06,08,00,23,13.60
2015,06,08,00,24,13.60
2015,06,08,00,25,13.60
2015,06,08,00,26,13.50
2015,06,08,00,27,13.50
2015,06,08,00,28,13.50
2015,06,08,00,29,13.50
2015,06,08,00,30,13.50
2015,06,08,00,31,13.50
2015,06,08,00,32,13.50
2015,06,08,00,33,13.50
2015,06,08,00,34,13.50
2015,06,08,00,35,13.50
2015,06,08,00,36,13.50
2015,06,08,00,37,13.50
2015,06,08,00,38,13.40
2015,06,08,00,39,13.40
2015,06,08,00,40,13.40
2015,06,08,00,41,13.50
2015,06,08,00,42,13.50
2015,06,08,00,43,13.50
2015,06,08,00,44,13.50
2015,06,08,00,45,13.40
2015,06,08,00,46,13.40
2015,06,08,00,47,13.40
2015,06,08,00,48,13.40
2015,06,08,00,49,13.50
2015,06,08,00,50,13.50
2015,06,08,00,51,13.40
2015,06,08,00,52,13.40
2015,06,08,00,53,13.40
2015,06,08,00,54,13.40
2015,06,08,00,55,13.40
2015,06,08,00,56,13.40
2015,06,08,00,57,13.40
2015,06,08,00,58,13.40
2015,06,08,00,59,13.30
2015,06,08,01,00,13.30
2015,06,08,01,01,13.30
2015,06,08,01,02,13.30
2015,06,08,01,03,13.30
2015,06,08,01,04,13.20
2015,06,08,01,05,13.20
2015,06,08,01,06,13.10
2015,06,08,01,07,13.10
2015,06,08,01,08,13.10
2015,06,08,01,09,13.00
2015,06,08,01,10,13.00
2015,06,08,01,11,12.90
2015,06,08,01,12,12.90
2015,06,08,01,13,12.90
2015,06,08,01,14,12.80
2015,06,08,01,15,12.80
2015,06,08,01,16,12.80
2015,06,08,01,17,12.80
2015,06,08,01,18,12.80
2015,06,08,01,19,12.80
2015,06,08,01,20,12.80
2015,06,08,01,21,12.80
2015,06,08,01,22,12.80
2015,06,08,01,23,12.80
2015,06,08,01,24,12.80
2015,06,08,01,25,12.80
2015,06,08,01,26,12.80
2015,06,08,01,27,12.80
2015,06,08,01,28,12.80
2015,06,08,01,29,12.80
2015,06,08,01,30,12.80
2015,06,08,01,31,12.70
2015,06,08,01,32,12.70
2015,06,08,01,33,12.70
2015,06,08,01,34,12.70
2015,06,08,01,35,12.70
2015,06,08,01,36,12.70
2015,06,08,01,37,12.80
2015,06,08,01,38,12.80
2015,06,08,01,39,12.80
2015,06,08,01,40,12.80
2015,06,08,01,41,12.80
2015,06,08,01,42,12.80
2015,06,08,01,43,12.80
2015,06,08,01,44,12.80
2015,06,08,01,45,12.80
2015,06,08,01,46,12.80
2015,06,08,01,47,12.80
2015,06,08,01,48,12.80
2015,06,08,01,49,12.80
2015,06,08,01,50,12.80
2015,06,08,01,51,12.80
2015,06,08,01,52,12.80
2015,06,08,01,53,12.80
2015,06,08,01,54,12.80
2015,06,08,01,55,12.80
2015,06,08,01,56,12.70
2015,06,08,01,57,12.70
2015,06,08,01,58,12.60
2015,06,08,01,59,12.60
2015,06,08,02,00,12.60
2015,06,08,02,01,12.60
2015,06,08,02,02,12.60
2015,06,08,02,03,12.60
2015,06,08,02,04,12.50
2015,06,08,02,05,12.50
2015,06,08,02,06,12.50
2015,06,08,02,07,12.40
2015,06,08,02,08,12.40
2015,06,08,02,09,12.30
2015,06,08,02,10,12.30
2015,06,08,02,11,12.30
2015,06,08,02,12,12.30
2015,06,08,02,13,12.30
2015,06,08,02,14,12.30
2015,06,08,02,15,12.30
2015,06,08,02,16,12.30
2015,06,08,02,17,12.30
2015,06,08,02,18,12.30
2015,06,08,02,19,12.30
2015,06,08,02,20,12.30
2015,06,08,02,21,12.30
2015,06,08,02,22,12.30
2015,06,08,02,23,12.30
2015,06,08,02,24,12.30
2015,06,08,02,25,12.30
2015,06,08,02,26,12.30
2015,06,08,02,27,12.30
2015,06,08,02,28,12.30
2015,06,08,02,29,12.30
2015,06,08,02,30,12.40
2015,06,08,02,31,12.40
2015,06,08,02,32,12.40
2015,06,08,02,33,12.40
2015,06,08,02,34,12.40
2015,06,08,02,35,12.50
2015,06,08,02,36,12.50
2015,06,08,02,37,12.50
2015,06,08,02,38,12.50
2015,06,08,02,39,12.60
2015,06,08,02,40,12.60
2015,06,08,02,41,12.60
2015,06,08,02,42,12.60
2015,06,08,02,43,12.60
2015,06,08,02,44,12.60
2015,06,08,02,45,12.60
2015,06,08,02,46,12.60
2015,06,08,02,47,12.60
2015,06,08,02,48,12.60
2015,06,08,02,49,12.60
2015,06,08,02,50,12.60
2015,06,08,02,51,12.60
2015,06,08,02,52,12.60
2015,06,08,02,53,12.60
2015,06,08,02,54,12.70
2015,06,08,02,55,12.70
2015,06,08,02,56,12.70
2015,06,08,02,57,12.70
2015,06,08,02,58,12.70
2015,06,08,02,59,12.80
2015,06,08,03,00,12.80
2015,06,08,03,01,12.90
2015,06,08,03,02,12.90
2015,06,08,03,03,12.90
2015,06,08,03,04,13.00
2015,06,08,03,05,13.00
2015,06,08,03,06,13.00
2015,06,08,03,07,13.00
2015,06,08,03,08,12.90
2015,06,08,03,09,12.90
2015,06,08,03,10,12.90
2015,06,08,03,11,12.90
2015,06,08,03,12,12.90
2015,06,08,03,13,12.90
2015,06,08,03,14,12.90
2015,06,08,03,15,12.90
2015,06,08,03,16,12.90
2015,06,08,03,17,12.80
2015,06,08,03,18,12.80
2015,06,08,03,19,12.80
2015,06,08,03,20,12.80
2015,06,08,03,21,12.80
2015,06,08,03,22,12.80
2015,06,08,03,23,12.80
2015,06,08,03,24,12.80
2015,06,08,03,25,12.80
2015,06,08,03,26,12.80
2015,06,08,03,27,12.80
2015,06,08,03,28,12.80
2015,06,08,03,29,12.80
2015,06,08,03,30,12.80
2015,06,08,03,31,12.70
2015,06,08,03,32,12.70
2015,06,08,03,33,12.70
2015,06,08,03,34,12.70
2015,06,08,03,35,12.70
2015,06,08,03,36,12.70
2015,06,08,03,37,12.70
2015,06,08,03,38,12.70
2015,06,08,03,39,12.70
2015,06,08,03,40,12.70
2015,06,08,03,41,12.70
2015,06,08,03,42,12.70
2015,06,08,03,43,12.70
2015,06,08,03,44,12.70
2015,06,08,03,45,12.70
2015,06,08,03,46,12.70
2015,06,08,03,47,12.70
2015,06,08,03,48,12.70
2015,06,08,03,49,12.60
2015,06,08,03,50,12.60
2015,06,08,03,51,12.60
2015,06,08,03,52,12.60
2015,06,08,03,53,12.60
2015,06,08,03,54,12.60
2015,06,08,03,55,12.50
2015,06,08,03,56,12.50
2015,06,08,03,57,12.40
2015,06,08,03,58,12.30
2015,06,08,03,59,12.30
2015,06,08,04,00,12.30
2015,06,08,04,01,12.20
2015,06,08,04,02,12.10
2015,06,08,04,03,12.10
2015,06,08,04,04,12.00
2015,06,08,04,05,12.00
2015,06,08,04,06,12.00
2015,06,08,04,07,11.90
2015,06,08,04,08,11.90
2015,06,08,04,09,11.90
2015,06,08,04,10,11.90
2015,06,08,04,11,11.90
2015,06,08,04,12,11.90
2015,06,08,04,13,11.80
2015,06,08,04,14,11.80
2015,06,08,04,15,11.80
2015,06,08,04,16,11.80
2015,06,08,04,17,11.80
2015,06,08,04,18,11.80
2015,06,08,04,19,11.80
2015,06,08,04,20,11.80
2015,06,08,04,21,11.80
2015,06,08,04,22,11.80
2015,06,08,04,23,11.80
2015,06,08,04,24,11.80
2015,06,08,04,25,11.80
2015,06,08,04,26,11.80
2015,06,08,04,27,11.80
2015,06,08,04,28,11.80
2015,06,08,04,29,11.80
2015,06,08,04,30,11.80
2015,06,08,04,31,11.80
2015,06,08,04,32,11.80
2015,06,08,04,33,11.80
2015,06,08,04,34,11.80
2015,06,08,04,35,11.80
2015,06,08,04,36,11.80
2015,06,08,04,37,11.70
2015,06,08,04,38,11.70
2015,06,08,04,39,11.70
2015,06,08,04,40,11.60
2015,06,08,04,41,11.60
2015,06,08,04,42,11.60
2015,06,08,04,43,11.60
2015,06,08,04,44,11.50
2015,06,08,04,45,11.40
2015,06,08,04,46,11.40
2015,06,08,04,47,11.40
2015,06,08,04,48,11.40
2015,06,08,04,49,11.30
2015,06,08,04,50,11.30
2015,06,08,04,51,11.30
2015,06,08,04,52,11.20
2015,06,08,04,53,11.20
2015,06,08,04,54,11.20
2015,06,08,04,55,11.20
2015,06,08,04,56,11.10
2015,06,08,04,57,11.10
2015,06,08,04,58,11.10
2015,06,08,04,59,11.10
2015,06,08,05,00,11.10
2015,06,08,05,01,11.10
2015,06,08,05,02,11.10
2015,06,08,05,03,11.10
2015,06,08,05,04,11.10
2015,06,08,05,05,11.10
2015,06,08,05,06,11.10
2015,06,08,05,07,10.90
2015,06,08,05,08,10.90
2015,06,08,05,09,10.90
2015,06,08,05,10,10.90
2015,06,08,05,11,10.90
2015,06,08,05,12,10.90
2015,06,08,05,13,10.90
2015,06,08,05,14,10.90
2015,06,08,05,15,10.90
2015,06,08,05,16,10.90
2015,06,08,05,17,10.90
2015,06,08,05,18,10.90
2015,06,08,05,19,10.90
2015,06,08,05,20,10.90
2015,06,08,05,21,10.90
2015,06,08,05,22,10.90
2015,06,08,05,23,10.90
2015,06,08,05,24,10.90
2015,06,08,05,25,10.90
2015,06,08,05,26,10.90
2015,06,08,05,27,10.90
2015,06,08,05,28,10.90
2015,06,08,05,29,10.90
2015,06,08,05,30,10.90
2015,06,08,05,31,10.90
2015,06,08,05,32,10.90
2015,06,08,05,33,11.00
2015,06,08,05,34,11.10
2015,06,08,05,35,11.10
2015,06,08,05,36,11.10
2015,06,08,05,37,11.10
2015,06,08,05,38,11.20
2015,06,08,05,39,11.20
2015,06,08,05,40,11.20
2015,06,08,05,41,11.20
2015,06,08,05,42,11.20
2015,06,08,05,43,11.20
2015,06,08,05,44,11.20
2015,06,08,05,45,11.20
2015,06,08,05,46,11.20
2015,06,08,05,47,11.30
2015,06,08,05,48,11.30
2015,06,08,05,49,11.40
2015,06,08,05,50,11.40
2015,06,08,05,51,11.40
2015,06,08,05,52,11.40
2015,06,08,05,53,11.60
2015,06,08,05,54,11.60
2015,06,08,05,55,11.60
2015,06,08,05,56,11.60
2015,06,08,05,57,11.70
2015,06,08,05,58,11.70
2015,06,08,05,59,11.70
2015,06,08,06,00,11.80
2015,06,08,06,01,11.80
2015,06,08,06,02,11.80
2015,06,08,06,03,11.80
2015,06,08,06,04,11.80
2015,06,08,06,05,11.90
2015,06,08,06,06,11.90
2015,06,08,06,07,12.00
2015,06,08,06,08,12.00
2015,06,08,06,09,12.00
2015,06,08,06,10,12.00
2015,06,08,06,11,12.10
2015,06,08,06,12,12.10
2015,06,08,06,13,12.10
2015,06,08,06,14,12.20
2015,06,08,06,15,12.20
2015,06,08,06,16,12.20
2015,06,08,06,17,12.20
2015,06,08,06,18,12.20
2015,06,08,06,19,12.20
2015,06,08,06,20,12.20
2015,06,08,06,21,12.30
2015,06,08,06,22,12.30
2015,06,08,06,23,12.30
2015,06,08,06,24,12.30
2015,06,08,06,25,12.30
2015,06,08,06,26,12.30
2015,06,08,06,27,12.30
2015,06,08,06,28,12.40
2015,06,08,06,29,12.40
2015,06,08,06,30,12.40
2015,06,08,06,31,12.50
2015,06,08,06,32,12.50
2015,06,08,06,33,12.60
2015,06,08,06,34,12.60
2015,06,08,06,35,12.60
2015,06,08,06,36,12.70
2015,06,08,06,37,12.70
2015,06,08,06,38,12.80
2015,06,08,06,39,12.80
2015,06,08,06,40,12.80
2015,06,08,06,41,12.90
2015,06,08,06,42,12.90
2015,06,08,06,43,13.00
2015,06,08,06,44,13.10
2015,06,08,06,45,13.20
2015,06,08,06,46,13.30
2015,06,08,06,47,13.40
2015,06,08,06,48,13.50
2015,06,08,06,49,13.60
2015,06,08,06,50,13.70
2015,06,08,06,51,13.70
2015,06,08,06,52,13.70
2015,06,08,06,53,13.70
2015,06,08,06,54,13.80
2015,06,08,06,55,13.80
2015,06,08,06,56,13.80
2015,06,08,06,57,13.80
2015,06,08,06,58,13.90
2015,06,08,06,59,13.90
2015,06,08,07,00,14.00
2015,06,08,07,01,14.10
2015,06,08,07,02,14.20
2015,06,08,07,03,14.40
2015,06,08,07,04,14.50
2015,06,08,07,05,14.70
2015,06,08,07,06,14.90
2015,06,08,07,07,15.00
2015,06,08,07,08,15.20
2015,06,08,07,09,15.30
2015,06,08,07,10,15.50
2015,06,08,07,11,15.60
2015,06,08,07,12,15.70
2015,06,08,07,13,15.90
2015,06,08,07,14,16.10
2015,06,08,07,15,16.20
2015,06,08,07,16,16.30
2015,06,08,07,17,16.40
2015,06,08,07,18,16.50
2015,06,08,07,19,16.60
2015,06,08,07,20,16.70
2015,06,08,07,21,16.70
2015,06,08,07,22,16.80
2015,06,08,07,23,16.80
2015,06,08,07,24,16.90
2015,06,08,07,25,17.00
2015,06,08,07,26,17.00
2015,06,08,07,27,17.00
2015,06,08,07,28,17.10
2015,06,08,07,29,17.10
2015,06,08,07,30,17.10
2015,06,08,07,31,17.20
2015,06,08,07,32,17.20
2015,06,08,07,33,17.20
2015,06,08,07,34,17.20
2015,06,08,07,35,17.20
2015,06,08,07,36,17.20
2015,06,08,07,37,17.20
2015,06,08,07,38,17.20
2015,06,08,07,39,17.20
2015,06,08,07,40,17.30
2015,06,08,07,41,17.30
2015,06,08,07,42,17.30
2015,06,08,07,43,17.30
2015,06,08,07,44,17.40
2015,06,08,07,45,17.40
2015,06,08,07,46,17.40
2015,06,08,07,47,17.50
2015,06,08,07,48,17.50
2015,06,08,07,49,17.50
2015,06,08,07,50,17.60
2015,06,08,07,51,17.60
2015,06,08,07,52,17.60
2015,06,08,07,53,17.60
2015,06,08,07,54,17.70
2015,06,08,07,55,17.70
2015,06,08,07,56,17.70
2015,06,08,07,57,17.70
2015,06,08,07,58,17.80
2015,06,08,07,59,17.80
2015,06,08,08,00,17.80
2015,06,08,08,01,17.90
2015,06,08,08,02,17.90
2015,06,08,08,03,18.00
2015,06,08,08,04,18.10
2015,06,08,08,05,18.20
2015,06,08,08,06,18.20
2015,06,08,08,07,18.20
2015,06,08,08,08,18.30
2015,06,08,08,09,18.30
2015,06,08,08,10,18.40
2015,06,08,08,11,18.40
2015,06,08,08,12,18.50
2015,06,08,08,13,18.50
2015,06,08,08,14,18.60
2015,06,08,08,15,18.60
2015,06,08,08,16,18.70
2015,06,08,08,17,18.80
2015,06,08,08,18,18.90
2015,06,08,08,19,18.90
2015,06,08,08,20,19.00
2015,06,08,08,21,19.10
2015,06,08,08,22,19.20
2015,06,08,08,23,19.30
2015,06,08,08,24,19.40
2015,06,08,08,25,19.50
2015,06,08,08,26,19.60
2015,06,08,08,27,19.60
2015,06,08,08,28,19.70
2015,06,08,08,29,19.80
2015,06,08,08,30,19.80
2015,06,08,08,31,19.80
2015,06,08,08,32,19.90
2015,06,08,08,33,19.90
2015,06,08,08,34,19.90
2015,06,08,08,35,19.90
2015,06,08,08,36,19.90
2015,06,08,08,37,20.00
2015,06,08,08,38,20.10
2015,06,08,08,39,20.10
2015,06,08,08,40,20.20
2015,06,08,08,41,20.30
2015,06,08,08,42,20.40
2015,06,08,08,43,20.40
2015,06,08,08,44,20.50
2015,06,08,08,45,20.50
2015,06,08,08,46,20.60
2015,06,08,08,47,20.60
2015,06,08,08,48,20.60
2015,06,08,08,49,20.60
2015,06,08,08,50,20.60
2015,06,08,08,51,20.70
2015,06,08,08,52,20.70
2015,06,08,08,53,20.60
2015,06,08,08,54,20.50
2015,06,08,08,55,20.50
2015,06,08,08,56,20.30
2015,06,08,08,57,20.30
2015,06,08,08,58,20.20
2015,06,08,08,59,20.20
2015,06,08,09,00,20.20
2015,06,08,09,01,20.20
2015,06,08,09,02,20.20
2015,06,08,09,03,20.20
2015,06,08,09,04,20.20
2015,06,08,09,05,20.30
2015,06,08,09,06,20.30
2015,06,08,09,07,20.40
2015,06,08,09,08,20.50
2015,06,08,09,09,20.50
2015,06,08,09,10,20.60
2015,06,08,09,11,20.60
2015,06,08,09,12,20.70
2015,06,08,09,13,20.70
2015,06,08,09,14,20.70
2015,06,08,09,15,20.70
2015,06,08,09,16,20.70
2015,06,08,09,17,20.70
2015,06,08,09,18,20.70
2015,06,08,09,19,20.70
2015,06,08,09,20,20.70
2015,06,08,09,21,20.80
2015,06,08,09,22,20.80
2015,06,08,09,23,20.80
2015,06,08,09,24,20.70
2015,06,08,09,25,20.80
2015,06,08,09,26,20.80
2015,06,08,09,27,20.90
2015,06,08,09,28,21.00
2015,06,08,09,29,21.00
2015,06,08,09,30,21.10
2015,06,08,09,31,21.10
2015,06,08,09,32,21.20
2015,06,08,09,33,21.20
2015,06,08,09,34,21.30
2015,06,08,09,35,21.30
2015,06,08,09,36,21.30
2015,06,08,09,37,21.30
2015,06,08,09,38,21.30
2015,06,08,09,39,21.30
2015,06,08,09,40,21.30
2015,06,08,09,41,21.40
2015,06,08,09,42,21.40
2015,06,08,09,43,21.40
2015,06,08,09,44,21.40
2015,06,08,09,45,21.40
2015,06,08,09,46,21.40
2015,06,08,09,47,21.40
2015,06,08,09,48,21.40
2015,06,08,09,49,21.40
2015,06,08,09,50,21.30
2015,06,08,09,51,21.30
2015,06,08,09,52,21.30
2015,06,08,09,53,21.30
2015,06,08,09,54,21.20
2015,06,08,09,55,21.10
2015,06,08,09,56,21.00
2015,06,08,09,57,20.90
2015,06,08,09,58,20.90
2015,06,08,09,59,20.90
2015,06,08,10,00,20.90
2015,06,08,10,01,21.00
2015,06,08,10,02,21.10
2015,06,08,10,03,21.10
2015,06,08,10,04,21.10
2015,06,08,10,05,21.20
2015,06,08,10,06,21.20
2015,06,08,10,07,21.10
2015,06,08,10,08,21.10
2015,06,08,10,09,21.10
2015,06,08,10,10,21.10
2015,06,08,10,11,21.20
2015,06,08,10,12,21.20
2015,06,08,10,13,21.20
2015,06,08,10,14,21.10
2015,06,08,10,15,21.10
2015,06,08,10,16,21.10
2015,06,08,10,17,21.10
2015,06,08,10,18,21.20
2015,06,08,10,19,21.20
2015,06,08,10,20,21.30
2015,06,08,10,21,21.30
2015,06,08,10,22,21.30
2015,06,08,10,23,21.30
2015,06,08,10,24,21.30
2015,06,08,10,25,21.30
2015,06,08,10,26,21.20
2015,06,08,10,27,21.20
2015,06,08,10,28,21.30
2015,06,08,10,29,21.30
2015,06,08,10,30,21.30
2015,06,08,10,31,21.30
2015,06,08,10,32,21.30
2015,06,08,10,33,21.30
2015,06,08,10,34,21.30
2015,06,08,10,35,21.30
2015,06,08,10,36,21.30
2015,06,08,10,37,21.30
2015,06,08,10,38,21.20
2015,06,08,10,39,21.10
2015,06,08,10,40,21.00
2015,06,08,10,41,21.00
2015,06,08,10,42,20.90
2015,06,08,10,43,20.80
2015,06,08,10,44,20.80
2015,06,08,10,45,20.70
2015,06,08,10,46,20.70
2015,06,08,10,47,20.70
2015,06,08,10,48,20.70
2015,06,08,10,49,20.80
2015,06,08,10,50,20.80
2015,06,08,10,51,20.90
2015,06,08,10,52,21.00
2015,06,08,10,53,21.20
2015,06,08,10,54,21.30
2015,06,08,10,55,21.40
2015,06,08,10,56,21.50
2015,06,08,10,57,21.60
2015,06,08,10,58,21.60
2015,06,08,10,59,21.60
2015,06,08,11,00,21.70
2015,06,08,11,01,21.70
2015,06,08,11,02,21.80
2015,06,08,11,03,21.90
2015,06,08,11,04,22.00
2015,06,08,11,05,22.00
2015,06,08,11,06,21.90
2015,06,08,11,07,21.80
2015,06,08,11,08,21.70
2015,06,08,11,09,21.70
2015,06,08,11,10,21.80
2015,06,08,11,11,21.80
2015,06,08,11,12,21.70
2015,06,08,11,13,21.70
2015,06,08,11,14,21.70
2015,06,08,11,15,21.90
2015,06,08,11,16,21.90
2015,06,08,11,17,22.00
2015,06,08,11,18,22.00
2015,06,08,11,19,22.00
2015,06,08,11,20,22.10
2015,06,08,11,21,22.10
2015,06,08,11,22,22.10
2015,06,08,11,23,22.10
2015,06,08,11,24,22.10
2015,06,08,11,25,22.10
2015,06,08,11,26,22.10
2015,06,08,11,27,22.00
2015,06,08,11,28,22.00
2015,06,08,11,29,21.90
2015,06,08,11,30,21.90
2015,06,08,11,31,21.80
2015,06,08,11,32,21.80
2015,06,08,11,33,21.80
2015,06,08,11,34,21.70
2015,06,08,11,35,21.60
2015,06,08,11,36,21.60
2015,06,08,11,37,21.60
2015,06,08,11,38,21.60
2015,06,08,11,39,21.60
2015,06,08,11,40,21.60
2015,06,08,11,41,21.60
2015,06,08,11,42,21.60
2015,06,08,11,43,21.70
2015,06,08,11,44,21.80
2015,06,08,11,45,21.90
2015,06,08,11,46,21.90
2015,06,08,11,47,22.00
2015,06,08,11,48,22.00
2015,06,08,11,49,22.10
2015,06,08,11,50,22.10
2015,06,08,11,51,22.20
2015,06,08,11,52,22.10
2015,06,08,11,53,21.90
2015,06,08,11,54,21.70
2015,06,08,11,55,21.60
2015,06,08,11,56,21.70
2015,06,08,11,57,21.70
2015,06,08,11,58,21.80
2015,06,08,11,59,21.90
2015,06,08,12,00,21.80
2015,06,08,12,01,21.70
2015,06,08,12,02,21.70
2015,06,08,12,03,21.60
2015,06,08,12,04,21.60
2015,06,08,12,05,21.70
2015,06,08,12,06,21.60
2015,06,08,12,07,21.60
2015,06,08,12,08,21.60
2015,06,08,12,09,21.70
2015,06,08,12,10,21.70
2015,06,08,12,11,21.80
2015,06,08,12,12,21.90
2015,06,08,12,13,22.00
2015,06,08,12,14,22.10
2015,06,08,12,15,22.20
2015,06,08,12,16,22.30
2015,06,08,12,17,22.40
2015,06,08,12,18,22.50
2015,06,08,12,19,22.60
2015,06,08,12,20,22.70
2015,06,08,12,21,22.90
2015,06,08,12,22,22.90
2015,06,08,12,23,23.00
2015,06,08,12,24,23.10
2015,06,08,12,25,23.10
2015,06,08,12,26,23.00
2015,06,08,12,27,22.90
2015,06,08,12,28,22.80
2015,06,08,12,29,22.70
2015,06,08,12,30,22.60
2015,06,08,12,31,22.50
2015,06,08,12,32,22.50
2015,06,08,12,33,22.50
2015,06,08,12,34,22.60
2015,06,08,12,35,22.70
2015,06,08,12,36,22.80
2015,06,08,12,37,22.80
2015,06,08,12,38,22.90
2015,06,08,12,39,22.90
2015,06,08,12,40,22.90
2015,06,08,12,41,22.90
2015,06,08,12,42,22.90
2015,06,08,12,43,22.70
2015,06,08,12,44,22.60
2015,06,08,12,45,22.60
2015,06,08,12,46,22.60
2015,06,08,12,47,22.60
2015,06,08,12,48,22.60
2015,06,08,12,49,22.60
2015,06,08,12,50,22.60
2015,06,08,12,51,22.60
2015,06,08,12,52,22.50
2015,06,08,12,53,22.50
2015,06,08,12,54,22.50
2015,06,08,12,55,22.60
2015,06,08,12,56,22.60
2015,06,08,12,57,22.50
2015,06,08,12,58,22.50
2015,06,08,12,59,22.50
2015,06,08,13,00,22.60
2015,06,08,13,01,22.60
2015,06,08,13,02,22.60
2015,06,08,13,03,22.70
2015,06,08,13,04,22.80
2015,06,08,13,05,22.90
2015,06,08,13,06,22.90
2015,06,08,13,07,23.00
2015,06,08,13,08,23.10
2015,06,08,13,09,23.20
2015,06,08,13,10,23.30
2015,06,08,13,11,23.20
2015,06,08,13,12,23.30
2015,06,08,13,13,23.30
2015,06,08,13,14,23.30
2015,06,08,13,15,23.30
2015,06,08,13,16,23.30
2015,06,08,13,17,23.20
2015,06,08,13,18,23.20
2015,06,08,13,19,23.20
2015,06,08,13,20,23.20
2015,06,08,13,21,23.20
2015,06,08,13,22,23.20
2015,06,08,13,23,23.30
2015,06,08,13,24,23.30
2015,06,08,13,25,23.50
2015,06,08,13,26,23.70
2015,06,08,13,27,23.90
2015,06,08,13,28,24.10
2015,06,08,13,29,24.20
2015,06,08,13,30,24.40
2015,06,08,13,31,24.50
2015,06,08,13,32,24.50
2015,06,08,13,33,24.60
2015,06,08,13,34,24.70
2015,06,08,13,35,24.90
2015,06,08,13,36,25.00
2015,06,08,13,37,25.00
2015,06,08,13,38,25.20
2015,06,08,13,39,25.30
2015,06,08,13,40,25.40
2015,06,08,13,41,25.50
2015,06,08,13,42,25.60
2015,06,08,13,43,25.70
2015,06,08,13,44,25.80
2015,06,08,13,45,25.80
2015,06,08,13,46,25.90
2015,06,08,13,47,25.90
2015,06,08,13,48,25.90
2015,06,08,13,49,25.90
2015,06,08,13,50,25.90
2015,06,08,13,51,25.90
2015,06,08,13,52,25.90
2015,06,08,13,53,25.90
2015,06,08,13,54,25.90
2015,06,08,13,55,26.00
2015,06,08,13,56,26.00
2015,06,08,13,57,26.10
2015,06,08,13,58,26.20
2015,06,08,13,59,26.30
2015,06,08,14,00,26.30
2015,06,08,14,01,26.40
2015,06,08,14,02,26.40
2015,06,08,14,03,26.40
2015,06,08,14,04,26.30
2015,06,08,14,05,26.30
2015,06,08,14,06,26.40
2015,06,08,14,07,26.40
2015,06,08,14,08,26.40
2015,06,08,14,09,26.30
2015,06,08,14,10,26.30
2015,06,08,14,11,26.20
2015,06,08,14,12,26.20
2015,06,08,14,13,26.30
2015,06,08,14,14,26.40
2015,06,08,14,15,26.40
2015,06,08,14,16,26.40
2015,06,08,14,17,26.50
2015,06,08,14,18,26.60
2015,06,08,14,19,26.60
2015,06,08,14,20,26.50
2015,06,08,14,21,26.40
2015,06,08,14,22,26.30
2015,06,08,14,23,26.20
2015,06,08,14,24,26.10
2015,06,08,14,25,26.10
2015,06,08,14,26,26.00
2015,06,08,14,27,26.00
2015,06,08,14,28,26.00
2015,06,08,14,29,26.10
2015,06,08,14,30,26.00
2015,06,08,14,31,25.80
2015,06,08,14,32,25.70
2015,06,08,14,33,25.70
2015,06,08,14,34,25.80
2015,06,08,14,35,25.90
2015,06,08,14,36,26.10
2015,06,08,14,37,26.10
2015,06,08,14,38,26.10
2015,06,08,14,39,26.10
2015,06,08,14,40,26.00
2015,06,08,14,41,26.10
2015,06,08,14,42,25.90
2015,06,08,14,43,25.80
2015,06,08,14,44,25.80
2015,06,08,14,45,25.70
2015,06,08,14,46,25.70
2015,06,08,14,47,25.70
2015,06,08,14,48,25.60
2015,06,08,14,49,25.60
2015,06,08,14,50,25.60
2015,06,08,14,51,25.50
2015,06,08,14,52,25.50
2015,06,08,14,53,25.50
2015,06,08,14,54,25.50
2015,06,08,14,55,25.60
2015,06,08,14,56,25.70
2015,06,08,14,57,25.70
2015,06,08,14,58,25.70
2015,06,08,14,59,25.90
2015,06,08,15,00,26.00
2015,06,08,15,01,26.10
2015,06,08,15,02,26.20
2015,06,08,15,03,26.30
2015,06,08,15,04,26.20
2015,06,08,15,05,26.20
2015,06,08,15,06,26.10
2015,06,08,15,07,26.00
2015,06,08,15,08,26.00
2015,06,08,15,09,26.00
2015,06,08,15,10,25.90
2015,06,08,15,11,26.00
2015,06,08,15,12,26.00
2015,06,08,15,13,26.10
2015,06,08,15,14,26.30
2015,06,08,15,15,26.30
2015,06,08,15,16,26.30
2015,06,08,15,17,26.40
2015,06,08,15,18,26.30
2015,06,08,15,19,26.40
2015,06,08,15,20,26.40
2015,06,08,15,21,26.40
2015,06,08,15,22,26.40
2015,06,08,15,23,26.40
2015,06,08,15,24,26.50
2015,06,08,15,25,26.60
2015,06,08,15,26,26.60
2015,06,08,15,27,26.70
2015,06,08,15,28,26.70
2015,06,08,15,29,26.70
2015,06,08,15,30,26.80
2015,06,08,15,31,26.80
2015,06,08,15,32,26.80
2015,06,08,15,33,26.80
2015,06,08,15,34,26.80
2015,06,08,15,35,26.80
2015,06,08,15,36,26.80
2015,06,08,15,37,26.70
2015,06,08,15,38,26.70
2015,06,08,15,39,26.80
2015,06,08,15,40,26.90
2015,06,08,15,41,26.90
2015,06,08,15,42,26.80
2015,06,08,15,43,26.80
2015,06,08,15,44,26.80
2015,06,08,15,45,26.80
2015,06,08,15,46,26.70
2015,06,08,15,47,26.60
2015,06,08,15,48,26.60
2015,06,08,15,49,26.60
2015,06,08,15,50,26.50
2015,06,08,15,51,26.60
2015,06,08,15,52,26.60
2015,06,08,15,53,26.60
2015,06,08,15,54,26.60
2015,06,08,15,55,26.60
2015,06,08,15,56,26.60
2015,06,08,15,57,26.60
2015,06,08,15,58,26.60
2015,06,08,15,59,26.60
2015,06,08,16,00,26.60
2015,06,08,16,01,26.70
2015,06,08,16,02,26.80
2015,06,08,16,03,26.80
2015,06,08,16,04,26.90
2015,06,08,16,05,27.00
2015,06,08,16,06,27.10
2015,06,08,16,07,27.10
2015,06,08,16,08,27.20
2015,06,08,16,09,27.30
2015,06,08,16,10,27.20
2015,06,08,16,11,27.10
2015,06,08,16,12,27.10
2015,06,08,16,13,27.10
2015,06,08,16,14,27.10
2015,06,08,16,15,27.10
2015,06,08,16,16,27.20
2015,06,08,16,17,27.10
2015,06,08,16,18,27.10
2015,06,08,16,19,27.20
2015,06,08,16,20,27.20
2015,06,08,16,21,27.30
2015,06,08,16,22,27.30
2015,06,08,16,23,27.30
2015,06,08,16,24,27.40
2015,06,08,16,25,27.30
2015,06,08,16,26,27.30
2015,06,08,16,27,27.30
2015,06,08,16,28,27.30
2015,06,08,16,29,27.20
2015,06,08,16,30,27.20
2015,06,08,16,31,27.30
2015,06,08,16,32,27.30
2015,06,08,16,33,27.30
2015,06,08,16,34,27.30
2015,06,08,16,35,27.30
2015,06,08,16,36,27.20
2015,06,08,16,37,27.20
2015,06,08,16,38,27.10
2015,06,08,16,39,27.00
2015,06,08,16,40,26.90
2015,06,08,16,41,26.80
2015,06,08,16,42,26.80
2015,06,08,16,43,26.80
2015,06,08,16,44,26.80
2015,06,08,16,45,26.90
2015,06,08,16,46,26.80
2015,06,08,16,47,26.80
2015,06,08,16,48,26.80
2015,06,08,16,49,26.80
2015,06,08,16,50,26.80
2015,06,08,16,51,26.80
2015,06,08,16,52,26.80
2015,06,08,16,53,26.80
2015,06,08,16,54,26.80
2015,06,08,16,55,26.80
2015,06,08,16,56,26.80
2015,06,08,16,57,26.70
2015,06,08,16,58,26.70
2015,06,08,16,59,26.70
2015,06,08,17,00,26.80
2015,06,08,17,01,26.80
2015,06,08,17,02,26.80
2015,06,08,17,03,26.70
2015,06,08,17,04,26.80
2015,06,08,17,05,26.80
2015,06,08,17,06,26.90
2015,06,08,17,07,26.90
2015,06,08,17,08,26.90
2015,06,08,17,09,26.80
2015,06,08,17,10,26.80
2015,06,08,17,11,26.80
2015,06,08,17,12,26.80
2015,06,08,17,13,26.80
2015,06,08,17,14,26.70
2015,06,08,17,15,26.70
2015,06,08,17,16,26.70
2015,06,08,17,17,26.70
2015,06,08,17,18,26.70
2015,06,08,17,19,26.70